Weather History for EIKN - December, 2013

Change the Weather History Date:

Thursday, December 26, 2013

  Actual Average Record
Temperature  
Mean Temperature 38 °F -  
Max Temperature 44 °F - - ()
Min Temperature 33 °F - - ()
Degree Days  
Heating Degree Days 26    
Moisture  
Dew Point 35 °F    
Average Humidity 93    
Maximum Humidity 100    
Minimum Humidity 81    
Precipitation  
Precipitation 0.04 in - - ()
Sea Level Pressure  
Sea Level Pressure 29.06 in    
Wind  
Wind Speed 10 mph ()    
Max Wind Speed 36 mph    
Max Gust Speed 47 mph    
Visibility 6.6 miles    
Events Rain    
T = Trace of Precipitation, MM = Missing Value Source: Averaged Metar Reports

Daily Weather History Graph

Daily Weather History Graph

Search for Another Location

Airport or City:

Trip Planner

Search our weather history database for the weather conditions in past years. The results will help you decide how hot, cold, wet, or windy it might be!

Date:

Astronomy

Dec. 26, 2013 Rise Set
Actual Time 8:53 AM GMT 4:18 PM GMT
Civil Twilight 8:09 AM GMT 5:02 PM GMT
Nautical Twilight 7:23 AM GMT 5:48 PM GMT
Astronomical Twilight 6:40 AM GMT 6:31 PM GMT
Moon 1:24 AM GMT (12/26) 12:26 PM GMT (12/26)
Length of Visible Light 8h 52m
Length of Day
7h 24m
Last Quarter, 41% of the Moon is Illuminated
Dec 26
Last Quarter
Jan 1
New
Jan 8
First Quarter
Jan 16
Full
Jan 24
Last Quarter

Hourly Weather History & Observations

Time (GMT) Temp. Windchill Dew Point Humidity Pressure Visibility Wind Dir Wind Speed Gust Speed Precip Events Conditions
12:00 AM 35 °F - 34 °F 96% 29.11 in - SSW 6.7 mph - -  
1:00 AM 35 °F - 35 °F 97% 29.13 in - SSW 6.7 mph - -  
2:00 AM 35 °F - 34 °F 96% 29.15 in - SW 6.7 mph - -  
3:00 AM 36 °F - 35 °F 97% 29.19 in - West 13.4 mph - -  
4:00 AM 36 °F - 36 °F 98% 29.21 in - WNW 6.7 mph - -  
5:00 AM 35 °F - 35 °F 100% 29.24 in - WSW 6.7 mph - -  
6:00 AM 34 °F - 33 °F 96% 29.28 in - WSW 6.7 mph - -  
7:00 AM 35 °F - 33 °F 92% 29.30 in - WSW 6.7 mph - -  
8:00 AM 33 °F - 33 °F 99% 29.32 in - SW 6.7 mph - -  
8:30 AM 33.8 °F 28.6 °F 32.0 °F 93% 29.30 in 6.2 mi SW 5.8 mph - N/A   Partly Cloudy
9:00 AM 34 °F - 33 °F 94% 29.33 in 28 mi SW 6.7 mph - -   Scattered Clouds
9:00 AM 33.8 °F 27.7 °F 33.8 °F 100% 29.30 in 6.2 mi SW 6.9 mph - N/A   Partly Cloudy
9:30 AM 33.8 °F 27.7 °F 33.8 °F 100% 29.30 in 6.2 mi SW 6.9 mph - N/A   Partly Cloudy
10:00 AM 36 °F - 33 °F 87% 29.33 in 28 mi SSW 4.5 mph - -   Scattered Clouds
10:00 AM 35.6 °F 31.7 °F 33.8 °F 93% 29.30 in 6.2 mi SSW 4.6 mph - N/A   Partly Cloudy
10:30 AM 35.6 °F 31.7 °F 33.8 °F 93% 29.30 in 6.2 mi South 4.6 mph - N/A   Partly Cloudy
11:00 AM 37 °F - 34 °F 84% 29.34 in 31 mi South 6.7 mph - -   Scattered Clouds
11:00 AM 37.4 °F 32.8 °F 33.8 °F 87% 29.30 in 6.2 mi South 5.8 mph - N/A   Partly Cloudy
11:30 AM 37.4 °F 32.1 °F 35.6 °F 93% 29.27 in 6.2 mi South 6.9 mph - N/A   Partly Cloudy
12:00 PM 38 °F - 34 °F 81% 29.30 in 25 mi South 6.7 mph - -   Scattered Clouds
12:00 PM 37.4 °F 32.1 °F 33.8 °F 87% 29.27 in 6.2 mi South 6.9 mph - N/A   Scattered Clouds
12:30 PM 35.6 °F 29.9 °F 35.6 °F 100% 29.24 in 6.2 mi SSE 6.9 mph - N/A   Mostly Cloudy
1:00 PM 36 °F - 35 °F 95% 29.24 in 22 mi SSE 8.9 mph - -   Scattered Clouds
1:00 PM 37.4 °F 31.4 °F 35.6 °F 93% 29.21 in 6.2 mi SSE 8.1 mph - N/A   Mostly Cloudy
1:30 PM 37.4 °F 30.8 °F 35.6 °F 93% 29.18 in 6.2 mi SSE 9.2 mph - N/A   Mostly Cloudy
2:00 PM 37 °F - 35 °F 90% 29.21 in 19 mi SSE 11.2 mph - -   Scattered Clouds
2:00 PM 37.4 °F 29.8 °F 35.6 °F 93% 29.18 in 6.2 mi SSE 11.5 mph - N/A   Mostly Cloudy
2:30 PM 37.4 °F 29.8 °F 35.6 °F 93% 29.15 in 6.2 mi SSE 11.5 mph - N/A   Mostly Cloudy
3:00 PM 37 °F - 36 °F 92% 29.13 in 22 mi SE 13.4 mph - -   Scattered Clouds
3:00 PM 37.4 °F 29.3 °F 35.6 °F 93% 29.09 in 6.2 mi SE 12.7 mph - N/A   Mostly Cloudy
3:30 PM 37.4 °F 28.2 °F 35.6 °F 93% 29.03 in 6.2 mi SE 16.1 mph - N/A   Mostly Cloudy
4:00 PM 37 °F - 35 °F 88% 29.03 in 14 mi SE 20.1 mph - -   Overcast
4:00 PM 37.4 °F 26.9 °F 35.6 °F 93% 29.00 in 6.2 mi SE 20.7 mph - N/A   Mostly Cloudy
4:30 PM 37.4 °F 25.6 °F 35.6 °F 93% 28.94 in 6.2 mi SSE 26.5 mph 43.7 mph N/A Rain Light Rain
5:00 PM 37 °F - 35 °F 89% 28.90 in 9 mi SE 24.6 mph - - Rain Light Rain
5:00 PM 37.4 °F 26.1 °F 35.6 °F 93% 28.85 in 6.2 mi SE 24.2 mph 40.3 mph N/A Rain Light Rain
6:00 PM 36 °F - 36 °F 100% 28.73 in 3 mi SE 26.8 mph - - Rain Light Rain
6:00 PM 37.4 °F 25.4 °F 35.6 °F 93% 28.71 in 3.1 mi SE 27.6 mph 41.4 mph N/A Rain Light Rain
7:00 PM 37 °F - 36 °F 97% 28.56 in 3 mi SE 33.6 mph - - Rain Light Rain
7:00 PM 37.4 °F 24.4 °F 37.4 °F 100% 28.53 in 3.1 mi SE 33.4 mph 47.2 mph N/A Rain Light Rain
8:00 PM 40 °F - 40 °F 98% 28.45 in - SSE 31.3 mph - -  
9:00 PM 44 °F - 43 °F 95% 28.36 in - South 24.6 mph - -  
10:00 PM 44 °F - 41 °F 86% 28.29 in - South 24.6 mph - -  
11:00 PM 44 °F - 41 °F 84% 28.23 in - SSW 35.8 mph - -